Location: Arpaise
(41.0333°N, 14.7333°E)
Time: 23:53:09
(UTC+00:00)

DELTA 2 R/B (1) - Pass Details

Date: 05 July 2020
Orbit: 790 x 803 km, 39.6° (Epoch: 11 August)

Event Time Altitude Azimuth Distance (km) Brightness Sun altitude
Rises 22:22:45 0° 261° (W) 3,289 6.8 -25.5°
Reaches altitude 10° 22:25:14 10° 260° (W) 2,361 6.0 -25.6°
Enters shadow 22:30:02 64° 235° (SW) 877 3.6 -25.8°
Exits shadow 22:36:25 10° 91° (E) 2,381 6.0 -25.9°
Drops below altitude 10° 22:36:29 10° 91° (E) 2,407 6.0 -25.9°
Sets 22:38:53 0° 90° (E) 3,302 6.7 -26.0°
